User: anonymous   Login
Location: Meriden
(44.0740°N, 93.3870°W)
Time: 20:48:18
(UTC-05:00)
Language:

AO-27 - Orbit

View from above orbital plane
View from above orbital plane
View from above satellite
View from above satellite

Ground track
Ground track

The orbit data is extracted from the following two-line orbital elements,

1 22825U 93061C   15085.84160461  .00000204  00000-0  96781-4 0  9998
2 22825 098.7002 035.9687 0008232 182.2890 230.8197 14.29852272121174
Epoch (UTC): 26 March 2015 20:11:54
Eccentricity: 0.0008232
inclination: 98.7002°
perigee height: 786 km
apogee height: 798 km
right ascension of ascending node: 35.9687°
argument of perigee: 182.2890°
revolutions per day: 14.29852272
mean anomaly at epoch: 230.8197°
orbit number at epoch: 12117

The dashed part of the orbit path shows where the satellite is in the earth's shadow,  

DLR